| time (UTC) | temp C | wind direction | speed KPH | gust KPH | rain 1hr cm | rain 24hr cm | rain mn cm | humidity % | barometer mb |
| 20260506031506 | 9 | 100 | 6.4 | 17.7 | 0.00 | 0.00 | 0.00 | 66 | 1006.6 |
| 20260506030015 | 10 | 61 | 3.2 | 9.7 | 0.00 | 0.00 | 0.00 | 65 | 1006.2 |
| 20260506024508 | 10 | 360 | 3.2 | 12.9 | 0.00 | 0.00 | 0.00 | 65 | 1006.2 |
| 20260506023000 | 10 | 267 | 1.6 | 14.5 | 0.00 | 0.00 | 0.00 | 64 | 1006.2 |
| 20260506021559 | 10 | 355 | 1.6 | 8.0 | 0.00 | 0.00 | 0.00 | 63 | 1005.9 |
| 20260506020058 | 10 | 44 | 1.6 | 6.4 | 0.00 | 0.00 | 0.00 | 63 | 1005.6 |
| 20260506014555 | 10 | 17 | 3.2 | 9.7 | 0.00 | 0.00 | 0.00 | 62 | 1005.1 |
| 20260506013107 | 10 | 63 | 3.2 | 9.7 | 0.00 | 0.00 | 0.00 | 61 | 1005.1 |
| 20260506011604 | 11 | 15 | 1.6 | 9.7 | 0.00 | 0.00 | 0.00 | 60 | 1005.0 |
| 20260506010050 | 11 | 25 | 3.2 | 9.7 | 0.00 | 0.00 | 0.00 | 60 | 1004.7 |
| 20260506004547 | 11 | 40 | 1.6 | 11.3 | 0.00 | 0.00 | 0.00 | 60 | 1004.7 |
| 20260506003047 | 11 | 5 | 1.6 | 6.4 | 0.00 | 0.00 | 0.00 | 60 | 1004.6 |
| 20260506001546 | 11 | 96 | 6.4 | 14.5 | 0.00 | 0.00 | 0.00 | 59 | 1004.5 |
| 20260506000044 | 11 | 51 | 3.2 | 9.7 | 0.00 | 0.00 | 0.00 | 59 | 1004.3 |
| 20260505234544 | 11 | 39 | 1.6 | 8.0 | 0.00 | 0.00 | 0.00 | 59 | 1004.4 |
| 20260505233043 | 11 | 57 | 1.6 | 9.7 | 0.00 | 0.00 | 0.00 | 59 | 1004.8 |
| 20260505231543 | 11 | 41 | 3.2 | 12.9 | 0.00 | 0.00 | 0.00 | 60 | 1004.7 |
| 20260505230051 | 11 | 89 | 8.0 | 19.3 | 0.00 | 0.00 | 0.00 | 59 | 1004.6 |
| 20260505224538 | 11 | 48 | 8.0 | 19.3 | 0.00 | 0.00 | 0.00 | 59 | 1004.4 |
| 20260505223047 | 11 | 93 | 8.0 | 20.9 | 0.00 | 0.00 | 0.00 | 58 | 1004.4 |
| 20260505221535 | 12 | 32 | 3.2 | 17.7 | 0.00 | 0.00 | 0.00 | 55 | 1004.0 |
| 20260505220035 | 12 | 30 | 3.2 | 16.1 | 0.00 | 0.00 | 0.00 | 53 | 1003.8 |
| 20260505214530 | 12 | 329 | 4.8 | 17.7 | 0.00 | 0.00 | 0.00 | 52 | 1003.4 |
| 20260505213048 | 13 | 347 | 4.8 | 16.1 | 0.00 | 0.00 | 0.00 | 51 | 1003.5 |
| 20260505211530 | 13 | 56 | 4.8 | 17.7 | 0.00 | 0.00 | 0.00 | 50 | 1003.5 |
| 20260505210030 | 13 | 22 | 4.8 | 12.9 | 0.00 | 0.00 | 0.00 | 49 | 1003.5 |
| 20260505204528 | 13 | 50 | 6.4 | 19.3 | 0.00 | 0.00 | 0.00 | 50 | 1003.6 |
| 20260505203041 | 13 | 5 | 8.0 | 16.1 | 0.00 | 0.00 | 0.00 | 49 | 1003.7 |
| 20260505201528 | 13 | 351 | 6.4 | 24.1 | 0.00 | 0.00 | 0.00 | 49 | 1003.8 |
| 20260505200034 | 13 | 339 | 9.7 | 17.7 | 0.00 | 0.00 | 0.00 | 49 | 1003.7 |
| 20260505194526 | 13 | 321 | 4.8 | 17.7 | 0.00 | 0.00 | 0.00 | 49 | 1003.8 |
| 20260505193025 | 13 | 347 | 3.2 | 14.5 | 0.00 | 0.00 | 0.00 | 50 | 1003.6 |
| 20260505191525 | 13 | 44 | 8.0 | 20.9 | 0.00 | 0.00 | 0.00 | 49 | 1003.5 |
| 20260505190024 | 13 | 42 | 6.4 | 11.3 | 0.00 | 0.00 | 0.00 | 48 | 1003.4 |
| 20260505184525 | 13 | 23 | 6.4 | 17.7 | 0.00 | 0.00 | 0.00 | 49 | 1003.4 |
| 20260505183022 | 13 | 9 | 14.5 | 22.5 | 0.00 | 0.00 | 0.00 | 50 | 1003.7 |
| 20260505181521 | 13 | 58 | 9.7 | 19.3 | 0.00 | 0.00 | 0.00 | 50 | 1003.5 |
| 20260505180019 | 13 | 86 | 4.8 | 16.1 | 0.00 | 0.00 | 0.00 | 50 | 1003.6 |
| 20260505174518 | 13 | 37 | 6.4 | 14.5 | 0.00 | 0.00 | 0.00 | 49 | 1003.5 |
| 20260505173035 | 13 | 40 | 4.8 | 24.1 | 0.00 | 0.00 | 0.00 | 51 | 1003.3 |
| 20260505171518 | 13 | 34 | 3.2 | 17.7 | 0.00 | 0.00 | 0.00 | 50 | 1003.4 |
| 20260505170022 | 13 | 54 | 4.8 | 17.7 | 0.00 | 0.00 | 0.00 | 50 | 1003.1 |
| 20260505164532 | 12 | 351 | 8.0 | 24.1 | 0.00 | 0.00 | 0.00 | 51 | 1002.9 |
| 20260505163014 | 12 | 27 | 6.4 | 17.7 | 0.00 | 0.00 | 0.00 | 52 | 1002.7 |
| 20260505161510 | 12 | 22 | 4.8 | 22.5 | 0.00 | 0.00 | 0.00 | 54 | 1002.5 |
| 20260505153006 | 12 | 327 | 12.9 | 33.8 | 0.00 | 0.00 | 0.00 | 55 | 1001.6 |
| 20260505151605 | 12 | 60 | 4.8 | 17.7 | 0.00 | 0.00 | 0.00 | 56 | 1001.4 |
| 20260505124537 | 12 | 30 | 9.7 | 22.5 | 0.00 | 0.00 | 0.00 | 51 | 998.8 |
| 20260505123029 | 13 | 355 | 12.9 | 32.2 | 0.00 | 0.00 | 0.00 | 51 | 998.3 |
| 20260505121530 | 13 | 317 | 6.4 | 25.7 | 0.00 | 0.00 | 0.00 | 52 | 998.1 |
| 20260505120024 | 13 | 360 | 14.5 | 32.2 | 0.00 | 0.00 | 0.00 | 50 | 997.5 |
| 20260505114532 | 13 | 336 | 12.9 | 35.4 | 0.00 | 0.00 | 0.00 | 51 | 997.2 |
| 20260505113017 | 14 | 330 | 17.7 | 33.8 | 0.00 | 0.00 | 0.00 | 51 | 997.1 |
| 20260505111513 | 15 | 42 | 6.4 | 27.4 | 0.00 | 0.00 | 0.00 | 53 | 997.0 |
| 20260505101603 | 15 | 355 | 11.3 | 24.1 | 0.00 | 0.00 | 0.00 | 69 | 995.0 |
| 20260505100055 | 15 | 355 | 12.9 | 27.4 | 0.00 | 0.00 | 0.00 | 69 | 994.2 |
| 20260505094553 | 16 | 11 | 8.0 | 20.9 | 0.00 | 0.00 | 0.00 | 69 | 993.9 |
| 20260505093046 | 17 | 328 | 8.0 | 16.1 | 0.00 | 0.00 | 0.00 | 59 | 993.4 |
| 20260505091553 | 18 | 338 | 1.6 | 9.7 | 0.00 | 0.00 | 0.00 | 38 | 993.1 |
| 20260505090051 | 20 | 304 | 4.8 | 14.5 | 0.00 | 0.00 | 0.00 | 24 | 992.6 |
| 20260505084537 | 21 | 276 | 9.7 | 17.7 | 0.00 | 0.00 | 0.00 | 23 | 992.1 |
| 20260505083040 | 23 | 322 | 11.3 | 24.1 | 0.00 | 0.00 | 0.00 | 19 | 992.0 |
| 20260505081545 | 23 | 262 | 14.5 | 25.7 | 0.00 | 0.00 | 0.00 | 21 | 991.6 |
| 20260505080037 | 23 | 263 | 14.5 | 25.7 | 0.00 | 0.00 | 0.00 | 21 | 991.3 |
| 20260505074523 | 23 | 248 | 11.3 | 19.3 | 0.00 | 0.00 | 0.00 | 21 | 991.3 |
| 20260505073021 | 23 | 257 | 11.3 | 20.9 | 0.00 | 0.00 | 0.00 | 21 | 991.6 |
| 20260505071525 | 24 | 272 | 11.3 | 22.5 | 0.00 | 0.00 | 0.00 | 20 | 991.8 |
| 20260505070023 | 23 | 252 | 12.9 | 22.5 | 0.00 | 0.00 | 0.00 | 20 | 991.8 |
| 20260505064516 | 23 | 254 | 11.3 | 20.9 | 0.00 | 0.00 | 0.00 | 20 | 991.9 |
| 20260505063015 | 23 | 279 | 9.7 | 19.3 | 0.00 | 0.00 | 0.00 | 21 | 992.0 |
| 20260505061523 | 23 | 270 | 11.3 | 22.5 | 0.00 | 0.00 | 0.00 | 21 | 992.1 |
| 20260505060011 | 23 | 267 | 9.7 | 20.9 | 0.00 | 0.00 | 0.00 | 20 | 992.2 |
| 20260505054513 | 23 | 221 | 8.0 | 16.1 | 0.00 | 0.00 | 0.00 | 19 | 992.2 |
| 20260505053004 | 23 | 239 | 12.9 | 20.9 | 0.00 | 0.00 | 0.00 | 20 | 992.4 |
| 20260505051503 | 23 | 233 | 6.4 | 14.5 | 0.00 | 0.00 | 0.00 | 20 | 992.4 |
| 20260505041559 | 22 | 228 | 4.8 | 14.5 | 0.00 | 0.00 | 0.00 | 26 | 992.7 |
| 20260505040100 | 21 | 248 | 3.2 | 4.8 | 0.00 | 0.00 | 0.00 | 28 | 992.7 |
| 20260505034558 | 22 | 232 | 1.6 | 4.8 | 0.00 | 0.00 | 0.00 | 27 | 992.8 |
| 20260505033058 | 23 | 230 | 1.6 | 3.2 | 0.00 | 0.00 | 0.00 | 24 | 992.8 |